Regional Weather Roundup
Issued by NWS Green Bay, WI

Home | Current Version | Previous Version | Text Only | Print | Product List | Glossary On
Versions: 1 2 3 4 5 6 7 8 9 10 11 12 13 14 15 16 17 18 19 20 21 22 23 24 25 26 27 28 29 30 31 32 33 34 35 36 37 38 39 40 41 42 43 44 45 46 47 48 49 50
000
ASUS43 KGRB 281359
RWRGRB

NORTH-CENTRAL AND NORTHEAST WISCONSIN REGIONAL WEATHER ROUNDUP
NATIONAL WEATHER SERVICE GREEN BAY WI
900 AM CDT SAT MAR 28 2015

WIZ005-009-010>012-018-019-281500-
NORTH CENTRAL WISCONSIN

CITY           SKY/WX    TMP DP  RH WIND       PRES   REMARKS
IRONWOOD       SUNNY     21  10  63 CALM      30.21R
MANITOWISH WTR NOT AVBL
ARBOR VITAE    NOT AVBL
EAGLE RIVER    NOT AVBL
LAND O LAKES   NOT AVBL
RHINELANDER    SUNNY     20   9  62 SW5       30.23S
PHILLIPS       SUNNY     21  12  68 CALM      30.22S
ANTIGO         NOT AVBL
TOMAHAWK       NOT AVBL
MERRILL        NOT AVBL
$$

WIZ013-073-281500-
NORTHEAST WISCONSIN

CITY           SKY/WX    TMP DP  RH WIND       PRES   REMARKS
IRON MOUNTAIN  SUNNY     14   3  61 CALM      30.25R
MARINETTE      SUNNY     21  10  63 SE5       30.32R
$$

WIZ017-030-035>037-045-281500-
CENTRAL WISCONSIN

CITY           SKY/WX    TMP DP  RH WIND       PRES   REMARKS
MEDFORD        NOT AVBL
WAUSAU         SUNNY     19  12  74 SE3       30.26R
MOSINEE        SUNNY     19  12  73 VRB3      30.28R
MARSHFIELD     SUNNY     25  16  68 S3        30.27R
WISC RAPIDS    SUNNY     23  11  60 VRB3      30.31R
STEVENS POINT  NOT AVBL
WAUPACA        SUNNY     26  17  68 S5        30.31S
SHAWANO        NOT AVBL
CLINTONVILLE   SUNNY     23  16  74 S5        30.31R
$$

WIZ038-039-048-051-281500-
FOX VALLEY

CITY           SKY/WX    TMP DP  RH WIND       PRES   REMARKS
NWS GREEN BAY  SUNNY     23  14  68 S3        30.33R
APPLETON       SUNNY     23  16  74 VRB3      30.31R
OSHKOSH        SUNNY     25  15  66 SE5       30.32R
FOND DU LAC    SUNNY     25  16  68 SE3       30.32R
$$

WIZ022-050-052-281500-
EAST CENTRAL WISCONSIN

CITY           SKY/WX    TMP DP  RH WIND       PRES   REMARKS
STURGEON BAY   SUNNY     21  10  63 SE3       30.34S
MANITOWOC      NOT AVBL
SHEBOYGAN      SUNNY     26  16  65 NW3       30.32R
$$

LMZ563-521-522-541>543-281500-
LAKESHORE

STATION/POSITION TIME  TEMP    WIND        PRES    VSBY  WAVE
                       AIR SEA DIR/SP/G                  HT/PER
                 (UTC) (F)     (DEG/KT/KT) (MB)    (MI)  (FT/S)
SHEBOYGAN LKSHOR 1300   23     330/  5/  6 1027.7R
KEWAUNEE LKSHORE 1300   23      CALM  /  1 1025.9R
NORTHPORT PIER   1300   21     320/  4/  5 1027.1R
CHAMBERS ISLAND  1300   23      50/  1/  1 1026.8R
MENOMINEE LKSHOR 1300   17      20/  1     1027.4R
$$



USA.gov is the U.S. government's official web portal to all federal, state and local government web resources and services.